Wind_Speed
7 7 7 7 6 6 7 7 7 7 7 8 8 9 10 11 11 12 13 14 14 15 15 16 17 18 18 19 19 20 21 22 23 23 24 24 25 25
8 8 8 7 8 8 8 8 8 8 9 10 11 11 11 12 13 14 15 16 18 18 19 19 20 21 21 22 22 23 23 24 24 24 25 26 26 27
9 9 9 9 9 9 9 9 10 10 11 12 13 13 14 14 15 16 18 19 20 21 22 22 23 23 23 24 25 26 27 27 27 28 27 27 28 29
9 9 10 10 10 11 11 11 11 12 13 13 14 15 16 17 18 19 20 21 21 22 23 24 25 25 26 27 28 28 29 29 30 30 30 30 30 31
11 11 11 11 12 12 13 14 14 14 15 16 17 17 18 19 20 21 21 22 23 25 26 27 28 28 29 30 31 31 32 33 33 34 34 33 33 33
13 13 14 14 14 15 16 16 17 17 18 19 20 20 21 22 22 23 23 25 26 27 28 29 30 31 32 33 33 34 35 35 35 36 37 37 36 35
15 15 16 16 17 18 19 19 20 21 22 22 23 24 24 25 26 26 27 28 29 31 32 33 34 35 36 37 37 37 38 38 38 38 38 39 39 39
17 18 18 19 20 21 22 23 24 25 26 26 26 27 28 29 29 30 31 32 33 35 36 37 38 39 40 40 41 41 41 41 41 40 40 40 41 41
19 20 21 22 23 23 24 26 27 27 28 29 30 31 32 32 33 34 34 35 36 38 39 41 42 43 44 44 44 45 45 44 44 44 43 44 44 43
22 23 23 24 25 27 27 28 29 30 32 33 33 34 35 36 36 37 38 39 40 42 43 44 44 44 45 46 47 47 47 47 46 46 46 46 46 46
24 25 26 27 28 29 30 31 32 33 35 35 36 37 38 38 39 40 41 42 43 44 45 46 46 46 46 47 48 48 49 49 49 48 48 49 49 49
27 28 29 30 31 32 33 34 35 36 37 37 38 39 40 41 42 43 44 44 45 46 48 48 48 48 48 48 48 49 49 50 51 51 51 52 52 52
30 31 32 33 34 35 36 37 38 39 39 40 41 42 43 44 45 46 47 48 49 50 51 51 50 50 49 48 48 49 50 51 52 52 52 53 54 54
33 34 35 37 38 38 39 40 41 41 42 43 44 45 46 46 47 48 49 50 51 52 52 52 51 50 49 49 48 49 50 51 52 52 53 53 54 55
36 37 38 40 40 41 42 42 43 43 44 45 46 46 47 48 49 50 50 51 52 52 52 51 51 49 49 49 48 48 49 50 51 52 53 54 55 56
39 40 41 42 42 43 43 44 45 46 46 47 48 49 50 50 51 51 51 52 52 51 51 51 50 50 49 49 49 48 50 50 51 53 54 55 56 57
42 43 43 44 44 44 45 46 47 48 49 50 50 51 51 52 52 52 52 52 51 51 50 50 51 51 50 50 50 50 50 51 53 54 54 54 55 56
44 44 45 45 46 47 48 49 50 50 51 52 52 53 53 53 53 52 52 52 51 51 51 51 51 51 51 51 51 51 51 51 52 54 55 55 54 55
46 47 48 49 50 50 51 51 52 52 53 53 54 54 54 54 53 53 53 53 53 53 52 52 53 53 53 51 50 51 52 52 53 53 53 53 53 53
49 50 51 52 53 53 53 53 53 54 54 55 55 55 55 55 54 54 54 54 54 54 54 54 54 54 54 52 51 50 51 52 52 51 51 51 52 52
51 52 53 54 55 55 55 55 55 56 56 56 56 56 56 55 55 55 56 55 55 55 54 53 54 54 53 52 50 49 49 50 50 49 49 49 49 49
53 54 55 56 56 56 56 56 56 56 56 56 56 56 56 56 56 56 56 55 55 55 54 54 53 52 51 51 50 48 47 46 46 46 47 46 46 46
55 56 57 57 57 57 57 57 57 57 57 56 56 56 56 56 56 55 55 55 55 54 53 51 50 49 48 48 48 46 45 44 43 42 41 41 41 42
Wind_Direction
357 355 352 348 343 340 338 333 325 318 311 306 302 294 286 283 284 282 281 281 276 274 272 270 269 268 267 265 265 262 259 258 255 253 253 252 250 249
344 341 341 340 338 335 331 327 323 316 309 306 301 295 292 289 288 285 281 278 278 276 275 273 270 268 268 268 267 266 264 261 260 257 256 255 253 253
332 330 329 328 328 330 326 322 318 315 311 306 303 300 297 294 291 288 284 281 279 279 278 276 274 272 269 269 268 268 267 265 263 261 259 259 256 255
322 321 319 318 319 321 321 319 316 314 311 308 306 303 299 296 294 292 287 283 281 280 279 278 277 276 274 272 270 269 268 266 264 262 260 258 257 255
313 314 314 313 312 312 312 312 310 308 307 306 305 303 301 299 297 293 290 286 283 281 280 281 280 278 276 275 273 271 268 267 266 264 262 259 258 257
305 307 308 309 308 308 307 306 305 304 304 304 303 302 301 300 298 295 292 288 286 284 282 281 280 279 277 276 274 273 271 269 267 265 264 261 258 257
300 301 303 304 305 306 305 304 303 302 302 302 301 301 300 299 296 294 292 290 288 286 284 283 282 281 279 277 275 274 272 270 268 267 265 261 258 257
297 298 298 299 300 302 302 302 301 301 301 301 300 299 299 297 295 293 292 290 288 286 285 283 282 281 280 279 277 275 273 271 269 267 265 262 259 258
296 297 298 298 299 300 300 300 300 299 300 300 299 298 297 295 294 293 292 291 290 289 287 285 283 282 280 278 276 274 273 270 268 266 264 263 261 258
296 297 297 298 299 300 299 299 299 299 299 299 299 298 297 296 294 293 293 292 292 291 290 289 286 283 280 278 276 274 271 268 267 266 264 263 261 260
295 296 297 297 299 299 299 299 298 298 299 299 299 298 297 296 295 294 294 293 293 292 291 291 288 285 282 279 276 273 270 267 266 265 264 263 261 260
295 295 296 297 297 298 298 297 297 298 298 299 299 299 298 297 296 296 295 295 294 293 293 291 289 285 282 279 277 273 269 267 265 264 263 262 261 259
294 294 295 296 296 296 297 297 297 297 298 298 298 298 298 297 297 297 297 296 295 295 294 293 290 286 282 279 275 273 270 267 265 263 263 262 261 259
293 294 294 295 295 296 296 297 297 297 298 298 298 298 298 298 298 298 297 297 297 296 295 293 290 286 282 280 277 273 271 268 266 264 263 263 262 260
293 293 294 295 295 295 296 296 297 297 298 299 299 299 298 298 298 298 298 297 297 296 294 292 290 287 284 282 279 275 272 270 267 266 264 264 263 262
293 294 294 295 295 295 296 296 296 297 298 299 299 299 298 298 298 298 298 297 297 296 294 292 290 288 286 283 281 278 275 271 269 268 267 266 265 264
292 293 293 294 294 295 296 296 296 297 298 298 298 298 298 298 298 298 298 297 297 296 294 292 290 290 288 286 282 280 278 275 272 270 269 268 267 265
291 292 292 293 294 295 295 296 296 297 297 298 298 298 298 298 297 297 297 297 296 296 295 293 291 290 289 287 285 283 281 278 274 272 270 269 268 265
290 291 292 292 293 294 295 296 296 297 297 298 298 298 297 297 297 296 296 296 296 295 294 293 293 291 290 287 284 283 282 279 276 274 272 270 269 267
290 290 291 292 292 293 294 295 296 296 297 297 297 297 297 297 297 296 296 296 295 294 294 294 293 292 291 289 286 284 283 281 278 276 273 271 270 268
289 290 291 292 292 293 294 295 296 296 297 297 297 297 297 297 296 296 296 296 295 294 294 294 293 293 292 290 287 286 284 282 279 276 274 272 271 268
290 290 291 292 293 293 294 295 296 296 296 296 297 296 296 296 296 296 296 296 296 295 295 294 293 292 291 291 289 287 286 282 278 276 276 274 271 269
290 291 291 292 293 294 294 295 295 296 296 296 296 296 295 296 296 297 297 297 297 296 295 294 293 292 292 292 291 289 286 282 278 275 274 274 272 269
Height
5861 5860 5859 5858 5857 5856 5855 5855 5854 5853 5852 5851 5851 5850 5850 5850 5849 5849 5849 5849 5849 5849 5848 5849 5849 5849 5849 5849 5849 5850 5850 5850 5851 5851 5852 5852 5852 5852
5860 5859 5858 5857 5856 5855 5854 5853 5852 5851 5850 5849 5848 5848 5847 5847 5846 5846 5845 5845 5844 5844 5844 5844 5844 5844 5844 5844 5844 5844 5844 5845 5845 5846 5846 5846 5847 5847
5859 5858 5857 5855 5854 5853 5852 5851 5850 5849 5848 5847 5846 5845 5844 5843 5842 5841 5841 5840 5839 5839 5838 5838 5838 5838 5838 5838 5838 5838 5838 5838 5839 5839 5839 5840 5840 5841
5857 5856 5855 5854 5852 5851 5850 5849 5847 5846 5845 5844 5842 5841 5840 5838 5837 5836 5835 5834 5833 5833 5832 5832 5831 5831 5831 5831 5831 5830 5830 5830 5831 5831 5832 5833 5833 5833
5855 5854 5852 5851 5850 5849 5847 5846 5844 5843 5841 5840 5838 5837 5835 5834 5832 5830 5829 5827 5826 5825 5825 5824 5824 5823 5823 5822 5822 5822 5822 5822 5822 5822 5823 5824 5824 5825
5852 5850 5849 5848 5847 5845 5844 5842 5840 5839 5837 5835 5834 5832 5830 5828 5826 5824 5822 5820 5819 5818 5817 5816 5815 5814 5814 5813 5813 5812 5812 5812 5811 5812 5812 5813 5814 5815
5848 5847 5845 5844 5842 5840 5839 5837 5835 5833 5831 5830 5828 5826 5823 5821 5819 5817 5815 5813 5811 5809 5808 5806 5805 5804 5803 5802 5801 5801 5801 5800 5800 5800 5801 5802 5803 5804
5843 5842 5840 5839 5837 5835 5833 5831 5829 5827 5825 5823 5820 5818 5816 5813 5811 5808 5806 5804 5802 5800 5798 5796 5794 5793 5791 5790 5789 5788 5787 5788 5788 5788 5788 5789 5790 5791
5838 5836 5835 5833 5831 5829 5827 5825 5822 5819 5817 5815 5812 5809 5807 5804 5802 5799 5796 5793 5791 5788 5785 5784 5781 5779 5777 5775 5774 5773 5773 5773 5773 5774 5774 5775 5776 5777
5832 5830 5828 5826 5824 5822 5820 5817 5814 5811 5809 5806 5803 5800 5796 5793 5790 5788 5785 5782 5779 5775 5771 5769 5766 5764 5761 5759 5757 5757 5756 5757 5757 5758 5759 5760 5761 5763
5826 5824 5822 5819 5817 5814 5812 5809 5806 5802 5799 5796 5792 5789 5785 5782 5778 5775 5772 5769 5766 5762 5757 5753 5751 5748 5745 5743 5740 5739 5739 5739 5740 5741 5742 5744 5745 5747
5819 5816 5814 5811 5808 5805 5802 5799 5796 5793 5789 5786 5782 5778 5773 5769 5765 5762 5758 5754 5750 5747 5741 5737 5733 5730 5729 5727 5723 5721 5720 5721 5722 5723 5724 5726 5727 5729
5810 5808 5805 5802 5799 5796 5793 5789 5786 5782 5779 5775 5771 5766 5762 5757 5752 5748 5743 5739 5734 5730 5725 5720 5716 5712 5709 5709 5708 5704 5703 5702 5703 5704 5705 5707 5708 5710
5801 5799 5795 5792 5789 5785 5782 5778 5775 5771 5767 5763 5758 5754 5749 5744 5739 5734 5728 5723 5718 5713 5708 5702 5698 5694 5691 5690 5690 5688 5685 5684 5684 5685 5687 5688 5689 5691
5792 5788 5785 5781 5778 5774 5770 5766 5762 5758 5754 5750 5746 5741 5735 5730 5725 5719 5714 5708 5702 5696 5690 5685 5680 5676 5674 5672 5671 5670 5668 5667 5666 5667 5668 5669 5670 5671
5781 5777 5774 5770 5766 5762 5758 5754 5749 5745 5741 5737 5732 5727 5721 5716 5710 5704 5699 5693 5688 5682 5675 5668 5664 5660 5657 5654 5652 5651 5650 5649 5649 5648 5648 5649 5650 5650
5769 5765 5762 5758 5754 5750 5746 5741 5737 5732 5727 5722 5717 5712 5707 5701 5695 5689 5683 5677 5672 5667 5661 5655 5649 5644 5641 5638 5635 5633 5631 5630 5629 5628 5628 5629 5630 5630
5756 5753 5749 5745 5741 5737 5733 5728 5723 5718 5713 5708 5702 5697 5691 5686 5680 5674 5668 5662 5657 5651 5646 5640 5634 5630 5626 5622 5618 5614 5613 5611 5610 5608 5607 5608 5610 5610
5743 5739 5735 5731 5727 5723 5718 5714 5709 5703 5698 5692 5686 5681 5675 5669 5664 5658 5653 5647 5641 5636 5630 5624 5618 5613 5610 5608 5605 5598 5594 5592 5590 5589 5588 5588 5589 5591
5729 5725 5721 5717 5712 5708 5703 5698 5693 5688 5682 5676 5670 5664 5658 5653 5648 5642 5637 5631 5625 5620 5614 5609 5602 5596 5591 5589 5587 5585 5578 5574 5572 5571 5570 5569 5569 5570
5715 5710 5706 5701 5697 5692 5687 5682 5677 5671 5665 5659 5654 5648 5642 5636 5631 5626 5620 5614 5608 5603 5597 5593 5586 5580 5574 5570 5568 5567 5563 5557 5554 5552 5552 5550 5551 5552
5699 5694 5690 5685 5680 5675 5670 5665 5660 5654 5648 5642 5637 5631 5625 5620 5614 5609 5603 5597 5591 5586 5580 5575 5570 5564 5559 5554 5551 5549 5547 5543 5539 5536 5534 5533 5531 5534
5682 5678 5673 5668 5663 5658 5653 5648 5643 5637 5631 5625 5620 5614 5608 5603 5597 5592 5586 5580 5575 5569 5563 5558 5554 5548 5544 5539 5535 5532 5530 5527 5524 5523 5522 5519 5517 5518